Location: Prescott
(34.5400°N, 112.4680°W)
Time: 20:37:23
(UTC-07:00)

N. Korean satellite - Visible Passes

Search period start: 19 February 2019 00:00
Search period end: 01 March 2019 00:00
Orbit: 457 x 510 km, 97.2° (Epoch: 18 February)

Date Brightness Start Highest point End Pass type
(mag) Time Alt. Az. Time Alt. Az. Time Alt. Az.
19 Feb 9.5 05:56:34 10° NE 05:59:08 19° E 06:01:39 10° SE visible
21 Feb 6.5 06:39:41 10° N 06:43:08 90° ESE 06:46:33 10° SSW visible
21 Feb 9.9 18:45:47 10° SW 18:48:35 20° W 18:51:21 10° NW visible
22 Feb 8.3 06:15:10 10° NNE 06:18:22 36° E 06:21:33 10° SSE visible
23 Feb 9.8 05:51:17 10° NE 05:53:32 16° E 05:55:46 10° SE visible
24 Feb 10.6 19:06:44 10° WSW 19:07:52 11° W 19:08:59 10° WNW visible
25 Feb 6.7 06:34:07 10° NNE 06:37:33 74° E 06:40:58 10° S visible
26 Feb 8.7 06:09:41 10° NE 06:12:46 30° E 06:15:49 10° SSE visible
27 Feb 10.0 05:46:02 10° ENE 05:47:54 14° E 05:49:45 10° SE visible
28 Feb 10.4 19:00:31 10° WSW 19:02:15 13° W 19:03:58 10° WNW visible
